Weather History for Pickens County Airport, SC

Change the Weather History Date:

Saturday, December 28, 2013

  Actual Average Record
Temperature  
Mean Temperature 35 °F -  
Max Temperature 60 °F 52 °F 60 °F (2013)
Min Temperature 23 °F 34 °F 23 °F (2013)
Degree Days  
Heating Degree Days 30    
Moisture  
Dew Point 32 °F    
Average Humidity 86    
Maximum Humidity 100    
Minimum Humidity 51    
Precipitation  
Precipitation 0.00 in - - ()
Sea Level Pressure  
Sea Level Pressure 30.29 in    
Wind  
Wind Speed - (North)    
Max Wind Speed -    
Max Gust Speed -    
Visibility 9 miles    
Events Rain    
Averages and records for this station are not official NWS values.
T = Trace of Precipitation, MM = Missing Value Source: NWS Daily Summary

Daily Weather History Graph

Daily Weather History Graph

Search for Another Location

Airport:

Trip Planner

Search our weather history database for the weather conditions in past years. The results will help you decide how hot, cold, wet, or windy it might be!

Date:

Astronomy

Dec. 28, 2013 Rise Set
Actual Time 7:37 AM EST 5:27 PM EST
Civil Twilight 7:09 AM EST 5:55 PM EST
Nautical Twilight 6:37 AM EST 6:27 PM EST
Astronomical Twilight 6:06 AM EST 6:58 PM EST
Moon 3:18 AM EST (12/28) 2:13 PM EST (12/28)
Length of Visible Light 10h 46m
Length of Day
9h 50m
Waning Crescent, 19% of the Moon is Illuminated
Dec 28
Waning Crescent
Jan 1
New
Jan 7
First Quarter
Jan 15
Full
Jan 24
Last Quarter

Hourly Weather History & Observations

Time (EST) Temp. Dew Point Humidity Pressure Visibility Wind Dir Wind Speed Gust Speed Precip Events Conditions
12:15 AM 27.7 °F 27.3 °F 99% 30.39 in 10.0 mi North - - N/A   Clear
12:35 AM 27.1 °F 27.1 °F 100% 30.39 in 10.0 mi North - - N/A   Clear
12:55 AM 27.1 °F 27.1 °F 100% 30.39 in 10.0 mi North - - N/A   Clear
1:15 AM 26.6 °F 26.8 °F 100% 30.39 in 10.0 mi North - - N/A   Clear
1:35 AM 26.2 °F 26.4 °F 100% 30.38 in 10.0 mi North - - N/A   Clear
1:55 AM 26.2 °F 26.4 °F 100% 30.37 in 10.0 mi North - - N/A   Clear
2:15 AM 25.9 °F 25.9 °F 100% 30.37 in 10.0 mi North - - N/A   Clear
2:35 AM 26.1 °F 26.1 °F 100% 30.36 in 10.0 mi North - - N/A   Clear
2:55 AM - - N/A% 30.37 in 10.0 mi North - - N/A   Clear
3:15 AM 25.7 °F 25.7 °F 100% 30.37 in 10.0 mi North - - N/A   Clear
3:35 AM 25.9 °F 26.1 °F 100% 30.36 in 10.0 mi North - - N/A   Clear
3:55 AM 25.0 °F 25.2 °F 100% 30.36 in 10.0 mi North - - N/A   Clear
4:15 AM 25.0 °F 25.2 °F 100% 30.36 in 10.0 mi North - - N/A   Clear
4:35 AM 24.6 °F 24.8 °F 100% 30.35 in 10.0 mi North - - N/A   Clear
4:55 AM 24.4 °F 24.6 °F 100% 30.35 in 10.0 mi North - - N/A   Clear
5:15 AM 24.4 °F 24.6 °F 100% 30.35 in 10.0 mi North - - N/A   Clear
5:35 AM 24.3 °F 24.4 °F 100% 30.35 in 10.0 mi North - - N/A   Clear
5:55 AM 23.9 °F 23.9 °F 100% 30.36 in 10.0 mi North - - N/A   Clear
6:15 AM - - N/A% 30.36 in 10.0 mi North - - N/A   Clear
6:35 AM 24.3 °F 24.4 °F 100% 30.35 in 10.0 mi North - - N/A   Clear
6:55 AM - - N/A% 30.34 in 10.0 mi North - - N/A   Clear
7:15 AM - - N/A% 30.35 in 10.0 mi North - - N/A   Clear
7:35 AM 23.7 °F 23.7 °F 100% 30.35 in 10.0 mi North - - N/A   Clear
7:55 AM 23.9 °F 23.9 °F 100% 30.36 in 10.0 mi North - - N/A   Clear
8:15 AM 24.6 °F 24.8 °F 100% 30.35 in 10.0 mi North - - N/A   Clear
8:35 AM 26.4 °F 26.6 °F 100% 30.36 in 10.0 mi North - - N/A   Clear
8:55 AM 28.4 °F 28.2 °F 99% 30.37 in 10.0 mi North - - N/A   Clear
9:15 AM 30.4 °F 29.5 °F 96% 30.38 in 10.0 mi North - - N/A   Clear
9:35 AM 31.3 °F 30.2 °F 96% 30.37 in 10.0 mi North - - N/A   Clear
9:55 AM 32.0 °F 31.8 °F 99% 30.38 in 10.0 mi North - - N/A   Clear
10:15 AM 32.7 °F 32.7 °F 100% 30.39 in 10.0 mi North - - N/A   Clear
10:35 AM 34.3 °F 33.8 °F 98% 30.38 in 10.0 mi North - - N/A   Scattered Clouds
10:55 AM 37.2 °F 35.6 °F 94% 30.36 in 10.0 mi North - - N/A   Clear
11:15 AM 39.4 °F 35.8 °F 87% 30.36 in 10.0 mi North - - N/A   Clear
11:35 AM 42.1 °F 35.4 °F 77% 30.35 in 10.0 mi North - - N/A   Clear
11:55 AM 44.6 °F 36.0 °F 72% 30.34 in 10.0 mi North - - N/A   Scattered Clouds
12:15 PM 46.2 °F 32.7 °F 59% 30.34 in 10.0 mi North - - N/A   Mostly Cloudy
12:35 PM 46.6 °F 29.1 °F 51% 30.34 in 10.0 mi North - - N/A   Mostly Cloudy
12:55 PM 46.8 °F 29.8 °F 52% 30.33 in 10.0 mi North - - N/A   Mostly Cloudy
1:15 PM 47.3 °F 30.9 °F 53% 30.32 in 10.0 mi North - - N/A   Mostly Cloudy
1:35 PM 47.3 °F 32.9 °F 57% 30.31 in 10.0 mi North - - N/A   Mostly Cloudy
1:55 PM 47.1 °F 32.9 °F 58% 30.28 in 10.0 mi North - - N/A   Overcast
2:15 PM 47.3 °F 33.1 °F 58% 30.27 in 10.0 mi North - - N/A   Overcast
2:35 PM 47.5 °F 33.3 °F 58% 30.26 in 10.0 mi North - - N/A   Overcast
2:55 PM 47.3 °F 34.2 °F 60% 30.26 in 10.0 mi North - - N/A   Overcast
3:15 PM 47.5 °F 33.8 °F 59% 30.26 in 10.0 mi North - - N/A   Overcast
3:35 PM 47.5 °F 33.1 °F 57% 30.25 in 10.0 mi North - - N/A   Overcast
3:55 PM 47.3 °F 32.2 °F 56% 30.24 in 10.0 mi North - - N/A   Overcast
4:15 PM 46.8 °F 32.5 °F 58% 30.24 in 10.0 mi North - - N/A   Overcast
4:35 PM 46.4 °F 32.7 °F 59% 30.24 in 10.0 mi North - - N/A   Overcast
4:55 PM 46.4 °F 32.2 °F 58% 30.22 in 10.0 mi North - - N/A   Overcast
5:15 PM 46.4 °F 32.0 °F 57% 30.21 in 10.0 mi North - - N/A   Light Drizzle
5:35 PM 45.5 °F 32.7 °F 61% 30.20 in 10.0 mi North - - N/A Rain Light Rain
5:55 PM 44.8 °F 34.5 °F 67% 30.20 in 10.0 mi North - - N/A   Light Drizzle
6:15 PM 44.6 °F 35.1 °F 69% 30.18 in 10.0 mi North - - N/A   Overcast
6:35 PM 44.1 °F 36.0 °F 73% 30.18 in 10.0 mi North - - N/A Rain Light Rain
6:55 PM 43.2 °F 37.4 °F 80% 30.20 in 10.0 mi North - - N/A Rain Light Rain
7:15 PM 42.3 °F 38.8 °F 88% 30.20 in 10.0 mi North - - N/A Rain Light Rain
7:35 PM 41.5 °F 40.5 °F 96% 30.21 in 10.0 mi North - - N/A Rain Light Rain
7:55 PM 41.0 °F 41.2 °F 100% 30.21 in 4.0 mi North - - N/A Rain Rain
8:15 PM 41.0 °F 41.2 °F 100% 30.20 in 3.0 mi North - - N/A Rain Rain
8:35 PM 41.0 °F 41.2 °F 100% 30.23 in 5.0 mi North - - N/A Rain Rain
8:55 PM 40.5 °F 40.6 °F 100% 30.23 in 5.0 mi North - - N/A Rain Rain
9:15 PM 40.5 °F 40.5 °F 100% 30.19 in 5.0 mi North - - N/A Rain Light Rain
9:35 PM 40.3 °F 40.5 °F 100% 30.18 in 10.0 mi North - - N/A Rain Light Rain
9:55 PM 40.3 °F 40.5 °F 100% 30.17 in 7.0 mi North - - N/A Rain Rain
10:15 PM 40.1 °F 40.1 °F 100% 30.16 in 4.0 mi North - - N/A Rain Rain
10:35 PM 40.1 °F 40.1 °F 100% 30.16 in 10.0 mi North - - N/A Rain Light Rain
10:55 PM - - N/A% 30.13 in 5.0 mi North - - N/A Rain Rain
11:15 PM 39.7 °F 39.9 °F 100% 30.11 in 7.0 mi North - - N/A Rain Light Rain
11:35 PM 39.6 °F 39.7 °F 100% 30.10 in 5.0 mi North - - N/A Rain Rain
11:55 PM 39.6 °F 39.7 °F 100% 30.06 in 5.0 mi North - - N/A Rain Rain